Weather History for ENGM - October, 2012

Change the Weather History Date:

Wednesday, October 31, 2012

  Actual Average Record
Temperature  
Mean Temperature 28 °F -  
Max Temperature 39 °F 35 °F 50 °F (2005)
Min Temperature 17 °F 27 °F 17 °F (2012)
Degree Days  
Heating Degree Days 37    
Moisture  
Dew Point 26 °F    
Average Humidity 95    
Maximum Humidity 100    
Minimum Humidity 86    
Precipitation  
Precipitation 0.31 in 0.12 in - ()
Sea Level Pressure  
Sea Level Pressure 29.32 in    
Wind  
Wind Speed 3 mph ()    
Max Wind Speed 13 mph    
Max Gust Speed -    
Visibility 3.9 miles    
Events Rain , Snow    
Averages and records for this station are not official NWS values.
T = Trace of Precipitation, MM = Missing Value Source: Averaged Metar Reports

Daily Weather History Graph

Daily Weather History Graph

Search for Another Location

Airport or City:

Trip Planner

Search our weather history database for the weather conditions in past years. The results will help you decide how hot, cold, wet, or windy it might be!

Date:

Astronomy

Oct. 31, 2012 Rise Set
Actual Time 7:36 AM CET 4:20 PM CET
Civil Twilight 6:51 AM CET 5:05 PM CET
Nautical Twilight 6:01 AM CET 5:55 PM CET
Astronomical Twilight 5:13 AM CET 6:43 PM CET
Moon 4:47 PM CET (10/31) 9:33 AM CET (10/31)
Length of Visible Light 10h 14m
Length of Day
8h 43m
Full, 98% of the Moon is Illuminated
Oct 31
Full
Nov 7
Last Quarter
Nov 13
New
Nov 20
First Quarter
Nov 28
Full

Hourly Weather History & Observations

Time (CET) Temp. Windchill Dew Point Humidity Pressure Visibility Wind Dir Wind Speed Gust Speed Precip Events Conditions
12:10 AM 17.6 °F - 14.0 °F 86% 29.42 in - Variable 2.3 mph - N/A   Clear
12:48 AM 17.6 °F - 14.0 °F 86% 29.42 in - Calm Calm - N/A   Clear
1:00 AM 17 °F - 15 °F 88%  in 25 mi NNE 2.2 mph - -   Partly Cloudy
1:11 AM 17.6 °F - 14.0 °F 86% 29.42 in 6.2 mi North 2.3 mph - N/A   Mostly Cloudy
1:40 AM 17.6 °F - 15.8 °F 93% 29.39 in 6.2 mi NNW 2.3 mph - N/A   Mostly Cloudy
2:13 AM 19.4 °F - 17.6 °F 93% 29.39 in 6.2 mi Variable 1.2 mph - N/A   Mostly Cloudy
2:43 AM 19.4 °F - 17.6 °F 93% 29.39 in 3.7 mi NNW 1.2 mph - N/A Snow Light Snow
3:11 AM 19.4 °F - 17.6 °F 93% 29.39 in 4.3 mi Variable 2.3 mph - N/A Snow Light Snow
3:40 AM 19.4 °F - 17.6 °F 93% 29.36 in 3.1 mi Variable 2.3 mph - N/A Snow Light Snow
4:10 AM 19.4 °F - 17.6 °F 93% 29.36 in 3.1 mi Variable 2.3 mph - N/A Snow Light Snow
4:41 AM 19.4 °F - 17.6 °F 93% 29.36 in 2.8 mi Variable 2.3 mph - N/A Snow Light Snow
5:11 AM 21.2 °F - 19.4 °F 93% 29.36 in - Variable 2.3 mph - N/A Snow Light Snow
5:42 AM 21.2 °F 14.9 °F 21.2 °F 100% 29.36 in - North 4.6 mph - N/A Snow Light Snow
6:13 AM 23.0 °F 18.4 °F 21.2 °F 93% 29.33 in 2.8 mi NNE 3.5 mph - N/A Snow Light Snow
6:41 AM 23.0 °F 17.0 °F 23.0 °F 100% 29.33 in - NNE 4.6 mph - N/A Snow Light Snow
7:00 AM 23 °F - 22 °F 96%  in 2 mi NNE 4.5 mph - - Snow Light Snow
7:10 AM 24.8 °F 17.9 °F 23.0 °F 93% 29.33 in 2.5 mi NNE 5.8 mph - N/A Snow Light Snow
7:41 AM 24.8 °F 17.9 °F 23.0 °F 93% 29.33 in 1.6 mi NNE 5.8 mph - N/A Snow Light Snow
8:11 AM 24.8 °F 17.9 °F 24.8 °F 100% 29.33 in 1.4 mi NNE 5.8 mph - N/A Snow Light Snow
8:42 AM 26.6 °F 20.0 °F 24.8 °F 93% 29.30 in 1.5 mi NNE 5.8 mph - N/A Snow Light Snow
9:11 AM 26.6 °F 20.0 °F 24.8 °F 93% 29.30 in - NNE 5.8 mph - N/A Snow Light Snow
9:43 AM 26.6 °F 21.2 °F 24.8 °F 93% 29.30 in 5.6 mi NNE 4.6 mph - N/A Snow Light Snow
10:11 AM 28.4 °F 23.3 °F 26.6 °F 93% 29.30 in 5.0 mi NNE 4.6 mph - N/A Rain Light Freezing Rain
10:41 AM 28.4 °F 24.6 °F 26.6 °F 93% 29.30 in 5.0 mi North 3.5 mph - N/A Rain Light Freezing Rain
11:11 AM 28.4 °F 24.6 °F 28.4 °F 100% 29.30 in 5.0 mi North 3.5 mph - N/A Rain Light Freezing Rain
11:40 AM 30.2 °F 25.4 °F 28.4 °F 93% 29.30 in 5.0 mi NNE 4.6 mph - N/A Rain Light Freezing Rain
12:11 PM 30.2 °F 25.4 °F 28.4 °F 93% 29.30 in 4.3 mi North 4.6 mph - N/A Rain Light Freezing Rain
12:41 PM 30.2 °F 24.3 °F 28.4 °F 93% 29.30 in 5.6 mi NNE 5.8 mph - N/A Rain Light Freezing Rain
1:00 PM 31 °F - 29 °F 92%  in 6 mi North 4.5 mph - -   Light Freezing Rain
1:11 PM 32.0 °F 27.5 °F 30.2 °F 93% 29.27 in 5.0 mi North 4.6 mph - N/A Rain Light Freezing Rain
1:41 PM 32.0 °F 28.7 °F 30.2 °F 93% 29.27 in 5.6 mi North 3.5 mph - N/A Rain Light Freezing Rain
2:12 PM 32.0 °F 28.7 °F 30.2 °F 93% 29.27 in 5.6 mi NNE 3.5 mph - N/A Rain Light Freezing Rain
2:41 PM 32.0 °F - 30.2 °F 93% 29.27 in 5.0 mi Variable 1.2 mph - N/A Rain Rain
3:11 PM 32.0 °F - 30.2 °F 93% 29.27 in 4.3 mi Variable 2.3 mph - N/A Rain Rain
3:42 PM 32.0 °F 28.7 °F 30.2 °F 93% 29.27 in 4.3 mi NE 3.5 mph - N/A Rain Light Rain
4:12 PM 32.0 °F - 30.2 °F 93% 29.27 in 2.8 mi Calm Calm - N/A Rain Rain
4:41 PM 32.0 °F - 30.2 °F 93% 29.27 in 2.5 mi Variable 1.2 mph - N/A Rain Rain
5:11 PM 32.0 °F - 32.0 °F 100% 29.27 in 3.1 mi Variable 1.2 mph - N/A Rain Rain
5:42 PM 32.0 °F - 32.0 °F 100% 29.30 in 3.7 mi Variable 2.3 mph - N/A Rain Rain
6:11 PM 32.0 °F - 32.0 °F 100% 29.30 in 3.1 mi Variable 2.3 mph - N/A Rain Light Rain
6:42 PM 32.0 °F 28.7 °F 32.0 °F 100% 29.30 in 2.8 mi NE 3.5 mph - N/A Rain Light Rain
7:00 PM 32 °F - 32 °F 98%  in 3 mi Calm Calm - - Rain Light Rain
7:10 PM 32.0 °F - 32.0 °F 100% 29.30 in 3.1 mi Variable 2.3 mph - N/A Rain Light Rain
7:43 PM 32.0 °F - 32.0 °F 100% 29.30 in - Calm Calm - N/A Rain Light Rain
8:10 PM 32.0 °F - 32.0 °F 100% 29.30 in - Calm Calm - N/A Rain Light Rain
8:41 PM 32.0 °F - 32.0 °F 100% 29.30 in 3.1 mi Calm Calm - N/A Rain Light Rain
9:10 PM 32.0 °F - 32.0 °F 100% 29.30 in - Variable 1.2 mph - N/A Rain Light Rain
9:42 PM 35.6 °F - 33.8 °F 93% 29.30 in - Variable 2.3 mph - N/A Rain Light Rain
10:13 PM 35.6 °F 29.2 °F 35.6 °F 100% 29.33 in - SSE 8.1 mph - N/A Rain Light Rain
10:47 PM 37.4 °F 29.8 °F 37.4 °F 100% 29.33 in 2.8 mi SSE 11.5 mph - N/A Rain Light Rain
11:12 PM 39.2 °F 31.6 °F 39.2 °F 100% 29.33 in 3.1 mi SSE 12.7 mph - N/A Rain Light Rain
11:41 PM 39.2 °F 32.0 °F 37.4 °F 93% 29.33 in 3.7 mi SSE 11.5 mph - N/A Rain Light Rain